Time,TemperatureF,DewpointF,PressureIn,WindDirection,WindDirectionDegrees,WindSpeedMPH,WindSpeedGustMPH,Humidity,HourlyPrecipIn,Conditions,Clouds,dailyrainin,SoftwareType,DateUTC
2013-07-24 00:01:00,69.5,68.9,29.47,SW,234,0.0,0.0,98,0.00,,,0.00,VWS V14.01,2013-07-24 04:01:00,
2013-07-24 00:11:00,69.2,68.6,29.47,SW,234,0.0,1.0,98,0.00,,,0.00,VWS V14.01,2013-07-24 04:11:00,
2013-07-24 00:21:00,68.8,68.2,29.45,SW,234,0.0,1.0,98,0.00,,,0.00,VWS V14.01,2013-07-24 04:21:00,
2013-07-24 00:31:00,68.6,68.0,29.46,SW,234,1.0,2.0,98,0.00,,,0.00,VWS V14.01,2013-07-24 04:31:00,
2013-07-24 00:41:00,68.5,67.9,29.46,SW,234,0.0,1.0,98,0.00,,,0.00,VWS V14.01,2013-07-24 04:41:00,
2013-07-24 00:51:00,68.5,68.2,29.46,SW,234,0.0,1.0,99,0.00,,,0.00,VWS V14.01,2013-07-24 04:51:00,
2013-07-24 01:01:00,68.5,67.9,29.46,SW,234,0.0,1.0,98,0.00,,,0.00,VWS V14.01,2013-07-24 05:01:00,
2013-07-24 01:11:00,68.6,68.3,29.46,SW,234,0.0,1.0,99,0.00,,,0.00,VWS V14.01,2013-07-24 05:11:00,
2013-07-24 01:21:00,68.7,68.4,29.47,SW,234,0.0,0.0,99,0.00,,,0.00,VWS V14.01,2013-07-24 05:21:00,
2013-07-24 01:31:00,68.8,68.5,29.47,SW,234,0.0,0.0,99,0.00,,,0.00,VWS V14.01,2013-07-24 05:31:00,
2013-07-24 01:41:00,69.0,68.7,29.47,SW,234,0.0,0.0,99,0.00,,,0.00,VWS V14.01,2013-07-24 05:41:00,
2013-07-24 01:51:00,69.0,68.7,29.46,SW,234,0.0,0.0,99,0.00,,,0.00,VWS V14.01,2013-07-24 05:51:00,
2013-07-24 02:01:00,69.1,68.8,29.46,SW,234,0.0,0.0,99,0.00,,,0.00,VWS V14.01,2013-07-24 06:01:00,
2013-07-24 02:11:00,69.2,68.9,29.46,SW,234,0.0,0.0,99,0.00,,,0.00,VWS V14.01,2013-07-24 06:11:00,
2013-07-24 02:21:00,69.0,68.7,29.46,SW,234,0.0,0.0,99,0.00,,,0.00,VWS V14.01,2013-07-24 06:21:00,
2013-07-24 02:31:00,69.0,68.7,29.46,SW,234,0.0,1.0,99,0.00,,,0.00,VWS V14.01,2013-07-24 06:31:00,
2013-07-24 02:41:00,69.1,68.8,29.46,SW,234,0.0,0.0,99,0.00,,,0.00,VWS V14.01,2013-07-24 06:41:00,
2013-07-24 02:51:00,69.2,68.9,29.47,SW,234,0.0,0.0,99,0.00,,,0.00,VWS V14.01,2013-07-24 06:51:00,
2013-07-24 03:01:00,69.4,69.1,29.47,SW,234,0.0,0.0,99,0.00,,,0.00,VWS V14.01,2013-07-24 07:01:00,
2013-07-24 03:11:00,69.5,69.2,29.47,SW,234,0.0,0.0,99,0.00,,,0.00,VWS V14.01,2013-07-24 07:11:00,
2013-07-24 03:21:00,69.4,69.1,29.46,SW,234,0.0,1.0,99,0.00,,,0.00,VWS V14.01,2013-07-24 07:21:00,
2013-07-24 03:31:00,69.4,69.1,29.46,SW,234,0.0,1.0,99,0.00,,,0.00,VWS V14.01,2013-07-24 07:31:00,
2013-07-24 03:41:00,69.3,69.0,29.46,SW,234,0.0,1.0,99,0.00,,,0.00,VWS V14.01,2013-07-24 07:41:00,
2013-07-24 03:51:00,69.4,69.1,29.46,SW,234,0.0,0.0,99,0.00,,,0.00,VWS V14.01,2013-07-24 07:51:00,
2013-07-24 04:01:00,69.4,69.1,29.46,SW,234,0.0,0.0,99,0.00,,,0.00,VWS V14.01,2013-07-24 08:01:00,
2013-07-24 04:11:00,69.5,69.2,29.46,SW,234,0.0,0.0,99,0.00,,,0.00,VWS V14.01,2013-07-24 08:11:00,
2013-07-24 04:21:00,69.4,69.1,29.46,SW,234,0.0,0.0,99,0.00,,,0.00,VWS V14.01,2013-07-24 08:21:00,
2013-07-24 04:31:00,69.3,69.0,29.46,SW,234,0.0,1.0,99,0.00,,,0.00,VWS V14.01,2013-07-24 08:31:00,
2013-07-24 04:41:00,69.2,68.9,29.46,SW,234,0.0,0.0,99,0.00,,,0.00,VWS V14.01,2013-07-24 08:41:00,
2013-07-24 04:51:00,69.2,68.9,29.47,SW,234,0.0,0.0,99,0.00,,,0.00,VWS V14.01,2013-07-24 08:51:00,
2013-07-24 05:01:00,68.9,68.6,29.46,SW,234,0.0,0.0,99,0.00,,,0.00,VWS V14.01,2013-07-24 09:01:00,
2013-07-24 05:11:00,68.7,68.4,29.46,SW,234,0.0,0.0,99,0.00,,,0.00,VWS V14.01,2013-07-24 09:11:00,
2013-07-24 05:21:00,68.7,68.4,29.47,SW,234,0.0,0.0,99,0.00,,,0.00,VWS V14.01,2013-07-24 09:21:00,
2013-07-24 05:31:00,68.6,68.3,29.47,SW,234,0.0,0.0,99,0.00,,,0.00,VWS V14.01,2013-07-24 09:31:00,
2013-07-24 05:41:00,68.6,68.3,29.47,SW,234,0.0,0.0,99,0.00,,,0.00,VWS V14.01,2013-07-24 09:41:00,
2013-07-24 05:51:00,68.5,68.2,29.48,SW,234,1.0,1.0,99,0.00,,,0.00,VWS V14.01,2013-07-24 09:51:00,
2013-07-24 06:01:00,68.3,68.0,29.49,SW,234,0.0,1.0,99,0.00,,,0.00,VWS V14.01,2013-07-24 10:01:00,
2013-07-24 06:11:00,68.4,68.1,29.49,SW,234,0.0,0.0,99,0.00,,,0.00,VWS V14.01,2013-07-24 10:11:00,
2013-07-24 06:21:00,68.6,68.3,29.49,SW,234,0.0,0.0,99,0.00,,,0.00,VWS V14.01,2013-07-24 10:21:00,
2013-07-24 06:31:00,68.8,68.5,29.49,SW,234,0.0,1.0,99,0.00,,,0.00,VWS V14.01,2013-07-24 10:31:00,
2013-07-24 06:41:00,69.1,68.8,29.49,SW,234,0.0,1.0,99,0.00,,,0.00,VWS V14.01,2013-07-24 10:41:00,
2013-07-24 06:51:00,69.4,69.1,29.50,SW,234,0.0,1.0,99,0.00,,,0.00,VWS V14.01,2013-07-24 10:51:00,
2013-07-24 07:01:00,69.7,69.4,29.50,SW,234,0.0,0.0,99,0.00,,,0.00,VWS V14.01,2013-07-24 11:01:00,
2013-07-24 07:11:00,70.0,70.0,29.50,SW,234,0.0,0.0,100,0.00,,,0.00,VWS V14.01,2013-07-24 11:11:00,
2013-07-24 07:21:00,70.4,70.1,29.50,SW,234,0.0,0.0,99,0.00,,,0.00,VWS V14.01,2013-07-24 11:21:00,
2013-07-24 07:31:00,71.4,71.4,29.50,SW,235,0.0,2.0,100,0.00,,,0.00,VWS V14.01,2013-07-24 11:31:00,
2013-07-24 07:41:00,71.8,71.5,29.50,SW,234,0.0,1.0,99,0.00,,,0.00,VWS V14.01,2013-07-24 11:41:00,
2013-07-24 07:51:00,71.9,71.9,29.51,SW,234,0.0,1.0,100,0.00,,,0.00,VWS V14.01,2013-07-24 11:51:00,
2013-07-24 08:01:00,72.2,72.2,29.51,SW,234,0.0,1.0,100,0.00,,,0.00,VWS V14.01,2013-07-24 12:01:00,
2013-07-24 08:11:00,72.7,72.7,29.51,SW,234,0.0,1.0,100,0.00,,,0.00,VWS V14.01,2013-07-24 12:11:00,
2013-07-24 08:21:00,73.2,73.2,29.51,SW,234,0.0,1.0,100,0.00,,,0.00,VWS V14.01,2013-07-24 12:21:00,
2013-07-24 08:31:00,73.5,73.5,29.52,SW,234,0.0,0.0,100,0.00,,,0.00,VWS V14.01,2013-07-24 12:31:00,
2013-07-24 08:41:00,73.6,73.6,29.52,SW,234,0.0,2.0,100,0.00,,,0.00,VWS V14.01,2013-07-24 12:41:00,
2013-07-24 08:51:00,74.0,74.0,29.52,SW,234,0.0,2.0,100,0.00,,,0.00,VWS V14.01,2013-07-24 12:51:00,
2013-07-24 09:01:00,74.5,74.5,29.53,SW,234,0.0,3.0,100,0.00,,,0.00,VWS V14.01,2013-07-24 13:01:00,
2013-07-24 09:11:00,74.7,74.7,29.53,SW,234,3.0,3.0,100,0.00,,,0.00,VWS V14.01,2013-07-24 13:11:00,
2013-07-24 09:21:00,74.7,74.7,29.53,SW,235,0.0,3.0,100,0.00,,,0.00,VWS V14.01,2013-07-24 13:21:00,
2013-07-24 09:31:00,74.9,74.9,29.53,SW,225,1.0,4.0,100,0.00,,,0.00,VWS V14.01,2013-07-24 13:31:00,
2013-07-24 09:41:00,75.3,75.3,29.53,SW,224,0.0,3.0,100,0.00,,,0.00,VWS V14.01,2013-07-24 13:41:00,
2013-07-24 09:51:00,75.5,75.2,29.55,SW,224,1.0,2.0,99,0.00,,,0.00,VWS V14.01,2013-07-24 13:51:00,
2013-07-24 10:01:00,75.8,75.5,29.55,SSW,212,1.0,5.0,99,0.00,,,0.00,VWS V14.01,2013-07-24 14:01:00,
2013-07-24 10:11:00,76.3,75.7,29.55,SSW,210,1.0,3.0,98,0.00,,,0.00,VWS V14.01,2013-07-24 14:11:00,
2013-07-24 10:21:00,76.7,76.4,29.55,SW,231,2.0,4.0,99,0.00,,,0.00,VWS V14.01,2013-07-24 14:21:00,
2013-07-24 10:31:00,76.9,75.1,29.56,South,186,1.0,4.0,94,0.00,,,0.00,VWS V14.01,2013-07-24 14:31:00,
2013-07-24 10:41:00,76.7,75.2,29.56,SW,229,2.0,4.0,95,0.00,,,0.00,VWS V14.01,2013-07-24 14:41:00,
2013-07-24 10:51:00,77.0,75.8,29.55,South,181,1.0,4.0,96,0.00,,,0.00,VWS V14.01,2013-07-24 14:51:00,
2013-07-24 11:01:00,77.1,75.2,29.56,SW,228,2.0,4.0,94,0.00,,,0.00,VWS V14.01,2013-07-24 15:01:00,
2013-07-24 11:11:00,77.5,75.3,29.56,WSW,244,1.0,5.0,93,0.00,,,0.00,VWS V14.01,2013-07-24 15:11:00,
2013-07-24 11:21:00,77.8,73.3,29.56,SW,223,1.0,5.0,86,0.00,,,0.00,VWS V14.01,2013-07-24 15:21:00,
2013-07-24 11:31:00,77.9,73.4,29.57,SW,225,1.0,5.0,86,0.00,,,0.00,VWS V14.01,2013-07-24 15:31:00,
2013-07-24 11:41:00,77.8,74.6,29.57,SSE,154,0.0,3.0,90,0.00,,,0.00,VWS V14.01,2013-07-24 15:41:00,
2013-07-24 11:51:00,78.3,74.8,29.57,SSE,165,2.0,5.0,89,0.00,,,0.00,VWS V14.01,2013-07-24 15:51:00,
2013-07-24 12:01:00,78.2,74.4,29.57,SW,215,0.0,4.0,88,0.00,,,0.00,VWS V14.01,2013-07-24 16:01:00,
2013-07-24 12:11:00,78.3,75.1,29.57,SW,219,1.0,4.0,90,0.00,,,0.00,VWS V14.01,2013-07-24 16:11:00,
2013-07-24 12:21:00,78.2,74.7,29.58,SSE,150,0.0,3.0,89,0.00,,,0.00,VWS V14.01,2013-07-24 16:21:00,
2013-07-24 12:31:00,78.2,74.4,29.58,SW,223,1.0,4.0,88,0.00,,,0.00,VWS V14.01,2013-07-24 16:31:00,
2013-07-24 12:41:00,78.6,75.4,29.58,SW,223,0.0,3.0,90,0.00,,,0.00,VWS V14.01,2013-07-24 16:41:00,
2013-07-24 12:51:00,78.7,74.5,29.58,SW,223,1.0,3.0,87,0.00,,,0.00,VWS V14.01,2013-07-24 16:51:00,
2013-07-24 13:01:00,79.2,75.0,29.58,SW,222,1.0,4.0,87,0.00,,,0.00,VWS V14.01,2013-07-24 17:01:00,
2013-07-24 13:11:00,79.5,73.2,29.58,SW,219,1.0,5.0,81,0.00,,,0.00,VWS V14.01,2013-07-24 17:11:00,
2013-07-24 13:21:00,80.3,74.7,29.57,SW,214,1.0,5.0,83,0.00,,,0.00,VWS V14.01,2013-07-24 17:21:00,
2013-07-24 13:31:00,80.4,75.1,29.58,South,173,0.0,3.0,84,0.00,,,0.00,VWS V14.01,2013-07-24 17:31:00,
2013-07-24 13:41:00,81.0,73.5,29.58,SW,233,5.0,6.0,78,0.00,,,0.00,VWS V14.01,2013-07-24 17:41:00,
2013-07-24 13:51:00,81.3,74.9,29.58,SW,228,4.0,4.0,81,0.00,,,0.00,VWS V14.01,2013-07-24 17:51:00,
2013-07-24 14:01:00,81.7,74.9,29.58,South,183,1.0,6.0,80,0.00,,,0.00,VWS V14.01,2013-07-24 18:01:00,
2013-07-24 14:11:00,81.6,74.5,29.58,South,191,1.0,4.0,79,0.00,,,0.00,VWS V14.01,2013-07-24 18:11:00,
2013-07-24 14:21:00,81.1,74.3,29.59,South,178,1.0,3.0,80,0.00,,,0.00,VWS V14.01,2013-07-24 18:21:00,
2013-07-24 14:31:00,81.2,72.9,29.59,South,178,1.0,4.0,76,0.00,,,0.00,VWS V14.01,2013-07-24 18:31:00,
2013-07-24 14:41:00,81.1,73.2,29.59,South,178,0.0,2.0,77,0.00,,,0.00,VWS V14.01,2013-07-24 18:41:00,
2013-07-24 14:51:00,81.2,72.9,29.60,SW,215,1.0,4.0,76,0.00,,,0.00,VWS V14.01,2013-07-24 18:51:00,
2013-07-24 15:01:00,81.2,71.7,29.60,South,175,0.0,4.0,73,0.00,,,0.00,VWS V14.01,2013-07-24 19:01:00,
2013-07-24 15:11:00,80.9,72.2,29.60,SSE,161,2.0,7.0,75,0.00,,,0.00,VWS V14.01,2013-07-24 19:11:00,
2013-07-24 15:21:00,80.9,71.8,29.60,South,173,1.0,5.0,74,0.00,,,0.00,VWS V14.01,2013-07-24 19:21:00,
2013-07-24 15:31:00,81.0,72.3,29.60,WSW,242,0.0,7.0,75,0.00,,,0.00,VWS V14.01,2013-07-24 19:31:00,
2013-07-24 15:41:00,81.6,72.9,29.60,SSW,193,6.0,6.0,75,0.00,,,0.00,VWS V14.01,2013-07-24 19:41:00,
2013-07-24 15:51:00,81.8,71.1,29.60,SSW,204,3.0,8.0,70,0.00,,,0.00,VWS V14.01,2013-07-24 19:51:00,
2013-07-24 16:01:00,80.9,71.0,29.60,SW,236,4.0,9.0,72,0.00,,,0.00,VWS V14.01,2013-07-24 20:01:00,
2013-07-24 16:11:00,80.3,71.3,29.60,SW,223,4.0,8.0,74,0.00,,,0.00,VWS V14.01,2013-07-24 20:11:00,
2013-07-24 16:21:00,81.2,72.1,29.60,South,191,0.0,5.0,74,0.00,,,0.00,VWS V14.01,2013-07-24 20:21:00,
2013-07-24 16:31:00,81.8,71.9,29.60,SW,214,1.0,7.0,72,0.00,,,0.00,VWS V14.01,2013-07-24 20:31:00,
2013-07-24 16:41:00,82.0,72.5,29.60,SW,226,0.0,3.0,73,0.00,,,0.00,VWS V14.01,2013-07-24 20:41:00,
2013-07-24 16:51:00,83.0,72.2,29.60,SW,228,1.0,6.0,70,0.00,,,0.00,VWS V14.01,2013-07-24 20:51:00,
2013-07-24 17:01:00,84.0,73.2,29.60,ENE,63,1.0,7.0,70,0.00,,,0.00,VWS V14.01,2013-07-24 21:01:00,
2013-07-24 17:11:00,83.5,70.5,29.60,SW,221,1.0,9.0,65,0.00,,,0.00,VWS V14.01,2013-07-24 21:11:00,
2013-07-24 17:21:00,82.6,71.0,29.61,SSW,212,0.0,7.0,68,0.00,,,0.00,VWS V14.01,2013-07-24 21:21:00,
2013-07-24 17:31:00,81.6,71.3,29.62,SSW,211,1.0,6.0,71,0.00,,,0.00,VWS V14.01,2013-07-24 21:31:00,
2013-07-24 17:41:00,81.2,70.9,29.62,SW,215,0.0,6.0,71,0.00,,,0.00,VWS V14.01,2013-07-24 21:41:00,
2013-07-24 17:51:00,81.4,71.1,29.63,SE,132,1.0,9.0,71,0.00,,,0.00,VWS V14.01,2013-07-24 21:51:00,
2013-07-24 18:01:00,81.3,70.2,29.63,SW,222,1.0,6.0,69,0.00,,,0.00,VWS V14.01,2013-07-24 22:01:00,
2013-07-24 18:11:00,81.5,70.4,29.63,NNE,30,1.0,3.0,69,0.00,,,0.00,VWS V14.01,2013-07-24 22:11:00,
2013-07-24 18:21:00,81.6,70.4,29.63,NNE,24,0.0,2.0,69,0.00,,,0.00,VWS V14.01,2013-07-24 22:21:00,
2013-07-24 18:31:00,81.6,70.9,29.64,North,355,0.0,2.0,70,0.00,,,0.00,VWS V14.01,2013-07-24 22:31:00,
2013-07-24 18:41:00,82.1,71.3,29.64,North,355,0.0,1.0,70,0.00,,,0.00,VWS V14.01,2013-07-24 22:41:00,
2013-07-24 18:51:00,81.9,71.2,29.64,North,355,0.0,1.0,70,0.00,,,0.00,VWS V14.01,2013-07-24 22:51:00,
2013-07-24 19:01:00,81.9,70.7,29.66,North,355,0.0,1.0,69,0.00,,,0.00,VWS V14.01,2013-07-24 23:01:00,
2013-07-24 19:11:00,81.3,70.6,29.66,North,355,0.0,2.0,70,0.00,,,0.00,VWS V14.01,2013-07-24 23:11:00,
2013-07-24 19:21:00,80.4,71.0,29.66,North,355,0.0,0.0,73,0.00,,,0.00,VWS V14.01,2013-07-24 23:21:00,
2013-07-24 19:31:00,79.7,71.1,29.67,North,355,0.0,0.0,75,0.00,,,0.00,VWS V14.01,2013-07-24 23:31:00,
2013-07-24 19:41:00,79.1,71.3,29.67,North,355,0.0,0.0,77,0.00,,,0.00,VWS V14.01,2013-07-24 23:41:00,
2013-07-24 19:51:00,78.5,70.7,29.68,North,355,0.0,0.0,77,0.00,,,0.00,VWS V14.01,2013-07-24 23:51:00,
2013-07-24 20:01:00,78.1,70.3,29.68,North,355,0.0,0.0,77,0.00,,,0.00,VWS V14.01,2013-07-25 00:01:00,
2013-07-24 20:11:00,77.5,69.7,29.68,North,355,0.0,0.0,77,0.00,,,0.00,VWS V14.01,2013-07-25 00:11:00,
2013-07-24 20:21:00,77.0,69.2,29.69,North,355,0.0,0.0,77,0.00,,,0.00,VWS V14.01,2013-07-25 00:21:00,
2013-07-24 20:31:00,76.7,69.3,29.69,North,355,0.0,0.0,78,0.00,,,0.00,VWS V14.01,2013-07-25 00:31:00,
2013-07-24 20:41:00,76.3,68.9,29.69,North,355,0.0,0.0,78,0.00,,,0.00,VWS V14.01,2013-07-25 00:41:00,
2013-07-24 20:51:00,75.9,69.3,29.70,North,355,0.0,0.0,80,0.00,,,0.00,VWS V14.01,2013-07-25 00:51:00,
2013-07-24 21:01:00,75.7,69.5,29.70,North,355,0.0,1.0,81,0.00,,,0.00,VWS V14.01,2013-07-25 01:01:00,
2013-07-24 21:11:00,75.4,68.8,29.70,North,355,0.0,1.0,80,0.00,,,0.00,VWS V14.01,2013-07-25 01:11:00,
2013-07-24 21:21:00,75.2,68.6,29.71,North,355,0.0,0.0,80,0.00,,,0.00,VWS V14.01,2013-07-25 01:21:00,
2013-07-24 21:31:00,74.9,67.9,29.72,North,355,0.0,0.0,79,0.00,,,0.00,VWS V14.01,2013-07-25 01:31:00,
2013-07-24 21:41:00,74.6,67.7,29.72,North,5,1.0,1.0,79,0.00,,,0.00,VWS V14.01,2013-07-25 01:41:00,
2013-07-24 21:51:00,74.3,67.7,29.73,North,5,0.0,1.0,80,0.00,,,0.00,VWS V14.01,2013-07-25 01:51:00,
2013-07-24 22:01:00,74.1,67.9,29.73,North,5,0.0,1.0,81,0.00,,,0.00,VWS V14.01,2013-07-25 02:01:00,
2013-07-24 22:11:00,73.9,65.9,29.73,NNE,15,0.0,2.0,76,0.00,,,0.00,VWS V14.01,2013-07-25 02:11:00,
2013-07-24 22:21:00,73.5,65.1,29.74,WSW,249,0.0,4.0,75,0.00,,,0.00,VWS V14.01,2013-07-25 02:21:00,
2013-07-24 22:31:00,73.3,64.9,29.74,WSW,249,0.0,1.0,75,0.00,,,0.00,VWS V14.01,2013-07-25 02:31:00,
2013-07-24 22:41:00,73.1,64.3,29.74,SW,226,0.0,2.0,74,0.00,,,0.00,VWS V14.01,2013-07-25 02:41:00,
2013-07-24 22:51:00,73.0,63.8,29.75,SW,226,1.0,2.0,73,0.00,,,0.00,VWS V14.01,2013-07-25 02:51:00,
2013-07-24 23:01:00,72.7,63.2,29.75,SW,236,1.0,3.0,72,0.00,,,0.00,VWS V14.01,2013-07-25 03:01:00,
2013-07-24 23:21:00,72.3,63.6,29.75,SW,236,0.0,1.0,74,0.00,,,0.00,VWS V14.01,2013-07-25 03:21:00,
2013-07-24 23:31:00,72.0,63.7,29.76,SW,236,0.0,1.0,75,0.00,,,0.00,VWS V14.01,2013-07-25 03:31:00,
2013-07-24 23:51:00,71.6,64.0,29.76,SW,236,0.0,2.0,77,0.00,,,0.00,VWS V14.01,2013-07-25 03:51:00,